Amateur Radio Satellites - All Passes

Search period start: 21 May 2013 12:32
Search period end: 22 May 2013 12:32
Location: White Mills Observatory, 37.5374°N, 86.0303°W

Satellite Date Start Highest point End Downlink Frequencies (MHz)
Time Altitude Azimuth
UOSAT-12 21 May 12:40:27 12:44:54 65° 118° (ESE) 12:49:25 437.025 FM, 437.400 FM
HO-68 21 May 12:48:15 12:53:57 27° 299° (WNW) 12:59:38 435.675 MHz FM
Oscar 11 21 May 13:07:37 13:08:31 11° 297° (WNW) 13:09:25 145.825 FM, Beacon 2401.500 USB
PANSAT 21 May 13:37:09 13:39:44 17° 169° (S) 13:42:19 not established
Oscar 16 21 May 13:42:45 13:46:46 23° 66° (ENE) 13:50:48 437.025 USB, Beacon 2401.1428
AO-27 21 May 13:48:39 13:52:15 19° 65° (ENE) 13:55:51 436.795 MHz FM
MaSat-1 21 May 13:49:26 13:51:17 15° 258° (WSW) 13:52:58 437.345 MHz
OPAL 21 May 13:54:56 13:56:44 12° 301° (WNW) 13:58:31 ?
ITAMSAT 1 21 May 13:55:22 13:59:14 22° 66° (ENE) 14:03:07 435.822 SSB
UOSAT-12 21 May 14:22:50 14:25:31 15° 316° (NW) 14:28:14 437.025 FM, 437.400 FM
Uribyol 2 21 May 14:35:22 14:40:24 55° 73° (ENE) 14:45:28 436.500 FM
Oscar 19 21 May 14:41:30 14:46:40 72° 75° (ENE) 14:51:52 437.125 CW, 437.150 USB
Uosat F 21 May 14:53:27 14:54:06 10° 60° (ENE) 14:54:45 435.120 FM
AO-Echo 21 May 14:58:11 15:02:14 27° 69° (ENE) 15:06:13 ?
Saudisat 1A 21 May 15:12:21 15:16:03 24° 49° (NE) 15:19:41 436.775 MHz
PANSAT 21 May 15:16:33 15:19:32 21° 182° (S) 15:22:31 not established
Oscar 16 21 May 15:21:01 15:25:52 40° 262° (W) 15:30:45 437.025 USB, Beacon 2401.1428
TMSAT-1 21 May 15:25:08 15:27:06 12° 61° (ENE) 15:29:04 436.925 FM
AO-27 21 May 15:26:24 15:31:23 48° 260° (W) 15:36:24 436.795 MHz FM
ITAMSAT 1 21 May 15:33:34 15:38:26 42° 261° (W) 15:43:21 435.822 SSB
Gurwin Techsat 1B 21 May 15:43:12 15:47:37 28° 68° (ENE) 15:52:04 435.225 FM
RS-15 21 May 15:56:49 16:05:40 25° 102° (ESE) 16:14:14 29.354 - 29.394 USB, Beacon 29.352 USB
AO-7 21 May 16:16:49 16:23:03 25° 56° (ENE) 16:29:18 29.400 - 29.500 MHz
Uribyol 2 21 May 16:17:08 16:20:12 16° 268° (W) 16:23:18 436.500 FM
Oscar 19 21 May 16:24:39 16:26:30 12° 270° (W) 16:28:22 437.125 CW, 437.150 USB
Uosat F 21 May 16:27:08 16:32:09 88° 256° (WSW) 16:37:10 435.120 FM
AO-Echo 21 May 16:36:42 16:40:56 29° 263° (W) 16:45:06 ?
Saudisat 1A 21 May 16:51:42 16:55:50 36° 246° (WSW) 16:59:53 436.775 MHz
PANSAT 21 May 16:57:11 16:59:18 14° 195° (SSW) 17:01:25 not established
TMSAT-1 21 May 17:01:00 17:06:18 82° 257° (WSW) 17:11:37 436.925 FM
PCSat 21 May 17:21:50 17:26:45 34° 55° (NE) 17:31:38 145.825 MHz
Gurwin Techsat 1B 21 May 17:22:42 17:27:27 34° 263° (W) 17:32:14 435.225 FM
Sapphire 21 May 17:54:28 17:59:50 60° 60° (ENE) 18:05:11 437.095 MHz 1200 baud AX-25 AFSK
SO-50 21 May 18:03:44 18:07:13 21° 48° (NE) 18:10:40 436.795 FM
RS-15 21 May 18:04:38 18:16:47 84° 300° (WNW) 18:28:27 29.354 - 29.394 USB, Beacon 29.352 USB
AO-7 21 May 18:06:47 18:15:02 74° 254° (WSW) 18:23:23 29.400 - 29.500 MHz
Hamsat 21 May 18:53:37 18:55:33 13° 65° (ENE) 18:57:31 145.90 MHz
PCSat 21 May 19:05:21 19:10:05 31° 251° (WSW) 19:14:47 145.825 MHz
STRAND 1 21 May 19:24:43 19:29:07 28° 96° (E) 19:33:30 ?
Sapphire 21 May 19:39:25 19:42:43 17° 256° (WSW) 19:46:01 437.095 MHz 1200 baud AX-25 AFSK
SO-50 21 May 19:43:45 19:48:00 41° 245° (WSW) 19:52:11 436.795 FM
JAS-1B 21 May 20:05:34 20:14:35 54° 70° (ENE) 20:22:22 435.800 - 435.900 CW/SSB
AO-7 21 May 20:06:40 20:09:03 11° 271° (W) 20:11:26 29.400 - 29.500 MHz
SO-67 21 May 20:19:06 20:22:24 36° 74° (ENE) 20:25:42 435.3500 MHz FM
RS-15 21 May 20:21:30 20:31:07 28° 325° (NW) 20:40:28 29.354 - 29.394 USB, Beacon 29.352 USB
Hamsat 21 May 20:27:07 20:31:11 48° 261° (W) 20:35:18 145.90 MHz
JAS-2 21 May 20:43:23 20:46:13 12° 54° (NE) 20:49:04 435.800 - 435.900 CW/SSB, 435.910 FM
STRAND 1 21 May 21:03:47 21:08:16 31° 291° (WNW) 21:12:45 ?
UOSAT-12 21 May 21:12:12 21:16:22 33° 52° (NE) 21:20:32 437.025 FM, 437.400 FM
HO-68 21 May 21:26:30 21:32:49 36° 64° (ENE) 21:39:08 435.675 MHz FM
OPAL 21 May 21:50:51 21:53:24 14° 60° (ENE) 21:55:56 ?
SO-67 21 May 21:54:54 21:56:00 11° 268° (W) 21:57:06 435.3500 MHz FM
JAS-1B 21 May 21:56:50 22:05:08 34° 263° (W) 22:12:32 435.800 - 435.900 CW/SSB
Oscar 11 21 May 22:22:04 22:26:06 40° 72° (ENE) 22:30:10 145.825 FM, Beacon 2401.500 USB
JAS-2 21 May 22:22:11 22:29:42 63° 72° (ENE) 22:37:27 435.800 - 435.900 CW/SSB, 435.910 FM
RS-15 21 May 22:43:17 22:49:21 15° 1° (N) 22:55:17 29.354 - 29.394 USB, Beacon 29.352 USB
UOSAT-12 21 May 22:52:38 22:56:23 25° 248° (WSW) 23:00:08 437.025 FM, 437.400 FM
HO-68 21 May 23:13:43 23:20:20 41° 261° (W) 23:27:01 435.675 MHz FM
OPAL 21 May 23:26:28 23:31:40 73° 256° (WSW) 23:36:51 ?
KITSAT 1 21 May 23:42:21 23:50:05 54° 112° (ESE) 23:57:54 435.175 FM
Oscar 11 21 May 23:59:58 00:02:30 15° 267° (W) 00:05:02 145.825 FM, Beacon 2401.500 USB
JAS-2 22 May 00:08:58 00:15:04 26° 268° (W) 00:21:22 435.800 - 435.900 CW/SSB, 435.910 FM
RS-15 22 May 00:57:49 01:07:15 30° 37° (NE) 01:16:23 29.354 - 29.394 USB, Beacon 29.352 USB
KITSAT 1 22 May 01:38:34 01:45:46 35° 311° (NW) 01:53:02 435.175 FM
AO-40 22 May 02:27:21 04:03:21 40° 227° (SW) 08:49:04 Beacon 2401.320
ISS 22 May 02:32:26 02:32:56 10° 127° (SE) 02:33:26 145.800 FM
MaSat-1 22 May 02:33:57 02:41:03 57° 110° (ESE) 02:47:03 437.345 MHz
Uribyol 2 22 May 02:50:52 02:55:00 23° 95° (E) 02:59:07 436.500 FM
Oscar 19 22 May 02:55:44 03:00:15 30° 96° (E) 03:04:43 437.125 CW, 437.150 USB
RS-15 22 May 03:09:57 03:21:04 85° 242° (WSW) 03:31:56 29.354 - 29.394 USB, Beacon 29.352 USB
Oscar 16 22 May 03:34:26 03:39:38 86° 103° (ESE) 03:44:47 437.025 USB, Beacon 2401.1428
AO-27 22 May 03:41:14 03:46:28 72° 102° (ESE) 03:51:41 436.795 MHz FM
ITAMSAT 1 22 May 03:48:07 03:53:22 82° 103° (ESE) 03:58:36 435.822 SSB
Gurwin Techsat 1B 22 May 04:03:01 04:05:09 12° 90° (E) 04:07:17 435.225 FM
ISS 22 May 04:05:55 04:09:12 69° 321° (NW) 04:12:32 145.800 FM
MaSat-1 22 May 04:17:41 04:23:23 27° 302° (WNW) 04:28:19 437.345 MHz
Uribyol 2 22 May 04:29:45 04:34:34 38° 290° (WNW) 04:39:22 436.500 FM
Oscar 19 22 May 04:35:05 04:39:31 30° 292° (WNW) 04:43:55 437.125 CW, 437.150 USB
Uosat F 22 May 04:37:17 04:41:50 33° 98° (E) 04:46:21 435.120 FM
AO-Echo 22 May 04:44:57 04:49:42 80° 284° (WNW) 04:54:33 ?
Oscar 16 22 May 05:16:53 05:18:13 11° 300° (WNW) 05:19:34 437.025 USB, Beacon 2401.1428
TMSAT-1 22 May 05:19:04 05:24:12 48° 99° (E) 05:29:18 436.925 FM
AO-27 22 May 05:22:52 05:25:21 14° 298° (WNW) 05:27:50 436.795 MHz FM
RS-15 22 May 05:25:17 05:31:36 18° 261° (W) 05:37:55 29.354 - 29.394 USB, Beacon 29.352 USB
ITAMSAT 1 22 May 05:30:16 05:32:09 12° 299° (WNW) 05:34:01 435.822 SSB
Gurwin Techsat 1B 22 May 05:40:18 05:45:37 72° 285° (WNW) 05:50:53 435.225 FM
ISS 22 May 05:44:42 05:46:26 13° 339° (NNW) 05:48:10 145.800 FM
AO-7 22 May 06:10:44 06:18:38 44° 100° (E) 06:26:29 29.400 - 29.500 MHz
Uosat F 22 May 06:16:22 06:20:27 26° 293° (WNW) 06:24:32 435.120 FM
STRAND 1 22 May 06:38:58 06:43:30 34° 69° (ENE) 06:48:03 ?
Saudisat 1A 22 May 06:56:27 07:01:00 85° 300° (WNW) 07:05:38 436.775 MHz
TMSAT-1 22 May 06:59:57 07:03:45 20° 295° (WNW) 07:07:33 436.925 FM
KITSAT 1 22 May 07:38:14 07:44:11 21° 40° (NE) 07:50:05 435.175 FM
PCSat 22 May 08:01:35 08:06:41 45° 111° (ESE) 08:11:49 145.825 MHz
AO-7 22 May 08:03:41 08:11:15 40° 297° (WNW) 08:18:49 29.400 - 29.500 MHz
Hamsat 22 May 08:15:37 08:19:35 33° 97° (E) 08:23:33 145.90 MHz
STRAND 1 22 May 08:18:32 08:22:42 26° 264° (W) 08:26:55 ?
Sapphire 22 May 08:34:10 08:39:33 84° 116° (ESE) 08:45:00 437.095 MHz 1200 baud AX-25 AFSK
Saudisat 1A 22 May 08:39:43 08:41:25 12° 319° (NW) 08:43:07 436.775 MHz
ISS 22 May 09:00:46 09:02:26 13° 20° (NNE) 09:04:05 145.800 FM
SO-67 22 May 09:20:52 09:24:26 66° 101° (E) 09:27:59 435.3500 MHz FM
KITSAT 1 22 May 09:32:35 09:40:46 86° 62° (ENE) 09:48:54 435.175 FM
JAS-1B 22 May 09:44:54 09:50:57 88° 285° (WNW) 09:56:36 435.800 - 435.900 CW/SSB
PCSat 22 May 09:45:53 09:50:17 25° 308° (NW) 09:54:44 145.825 MHz
Hamsat 22 May 09:52:17 09:55:25 20° 292° (WNW) 09:58:33 145.90 MHz
SO-50 22 May 09:56:35 10:01:24 81° 301° (WNW) 10:06:10 436.795 FM
Sapphire 22 May 10:20:38 10:23:41 15° 314° (NW) 10:26:45 437.095 MHz 1200 baud AX-25 AFSK
ISS 22 May 10:36:21 10:39:42 63° 38° (NE) 10:43:02 145.800 FM
HO-68 22 May 10:43:01 10:49:47 43° 100° (E) 10:56:30 435.675 MHz FM
JAS-2 22 May 11:20:20 11:27:09 63° 100° (E) 11:33:06 435.800 - 435.900 CW/SSB, 435.910 FM
UOSAT-12 22 May 11:23:48 11:26:16 15° 108° (ESE) 11:28:45 437.025 FM, 437.400 FM
KITSAT 1 22 May 11:30:12 11:35:07 18° 259° (W) 11:40:02 435.175 FM
OPAL 22 May 11:38:55 11:43:26 34° 99° (E) 11:47:54 ?
JAS-1B 22 May 11:39:15 11:40:30 11° 305° (NW) 11:41:43 435.800 - 435.900 CW/SSB
SO-50 22 May 11:41:02 11:42:45 12° 319° (NW) 11:44:29 436.795 FM
Oscar 11 22 May 11:47:46 11:52:08 73° 284° (WNW) 11:56:29 145.825 FM, Beacon 2401.500 USB
ISS 22 May 12:14:45 12:16:01 12° 233° (SW) 12:17:17 145.800 FM

Developed and maintained by Chris Peat, Heavens-Above GmbH. Please read the updated FAQ before sending e-mail. Imprint. DLR
